Regional Weather Roundup
Issued by NWS Upton, NY

Current Version | Previous Version | Text Only | Print | Product List | Glossary On
Versions: 1 2 3 4 5 6 7 8 9 10 11 12 13 14 15 16 17 18 19 20 21 22 23 24 25 26 27
000
ASUS41 KOKX 281904
RWROKX

REGIONAL WEATHER ROUNDUP
NATIONAL WEATHER SERVICE NEW YORK NY
300 PM EDT SAT MAY 28 2016

NOTE: "FAIR" INDICATES FEW OR NO CLOUDS BELOW 12,000 FEET WITH NO
SIGNIFICANT WEATHER AND/OR OBSTRUCTIONS TO VISIBILITY.

NYZ071-072-176-178-NJZ106-104-282000-
NEW YORK CITY METRO AREA


CITY           SKY/WX    TMP DP  RH WIND       PRES   REMARKS
CENTRAL PARK   SUNNY     90  66  45 VRB7      30.10F HX  92
LAGUARDIA APRT MOSUNNY   89  71  55 S16       30.08F HX  95
KENNEDY INTL   MOSUNNY   76  61  59 S18       30.12F
NEWARK/LIBERTY MOSUNNY   95  64  35 SW13G20   30.07F HX  97
BRNX BOT. GARD   N/A     88  66  48 SE8       30.10S HX  90
TETERBORO      PTSUNNY   91  63  39 S13G22    30.05F HX  92
$$

NYZ177-179-078>081-282000-
LONG ISLAND NEW YORK

CITY           SKY/WX    TMP DP  RH WIND       PRES   REMARKS
FARMINGDALE    SUNNY     79  65  62 SW10      30.12F
ISLIP          MOSUNNY   79  64  60 SW15      30.11F
SHIRLEY        SUNNY     78  64  61 S14       30.13F
RIVERHEAD        N/A     82  68  61 W2        30.10S
WESTHAMPTON    SUNNY     74  61  63 SW14G22   30.14F
EAST HAMPTON   FAIR      74  62  66 SW8       30.12S
MONTAUK POINT    N/A     73  62  68 SW10G21   30.13S
$$

NYZ052-065-067-282000-
HUDSON VALLEY

CITY           SKY/WX    TMP DP  RH WIND       PRES   REMARKS
WHITE PLAINS   MOSUNNY   86  66  51 S9        30.09F
NEWBURGH       MOSUNNY   88  66  48 SW7       30.09F HX  90
MONTGOMERY     MOSUNNY   90  69  50 SW13G20   30.06F HX  94
POUGHKEEPSIE   SUNNY     94  65  38 SW10      30.04F HX  96
ALBANY         PTSUNNY   92  61  35 NW3       30.06F HX  92
$$

NJZ001-105-106-008-010-013-015-019>022-104-282000-
NEW JERSEY

CITY           SKY/WX    TMP DP  RH WIND       PRES   REMARKS
NEWARK/LIBERTY MOSUNNY   95  64  35 SW13G20   30.07F HX  97
TETERBORO      PTSUNNY   91  63  39 S13G22    30.05F HX  92
CALDWELL       SUNNY     92  63  38 SW8       30.07F HX  93
MORRISTOWN     MOSUNNY   91  64  40 W9G17     30.08F HX  93
SOMERVILLE     SUNNY     90  67  46 S9        30.07F HX  93
SUSSEX         LGT RAIN  80  66  62 SW6       30.10S
ANDOVER          N/A     88  66  48 VRB3      30.10F HX  90
TRENTON        SUNNY     89  68  49 SW16      30.10F HX  93
MILLVILLE      SUNNY     84  65  52 S8        30.15F
ATLANTIC CITY  SUNNY     82  64  54 S12       30.14F
WRIGHTSTOWN    MOSUNNY   90  67  46 SW15      30.08F HX  93
TOMS RIVER     MOSUNNY   93  66  40 S15       30.10F HX  96
BELMAR         PTSUNNY   85  68  56 SE10      30.11F
$$

PAZ047>061-062-071-282000-
EASTERN PENNSYLVANIA

CITY           SKY/WX    TMP DP  RH WIND       PRES   REMARKS
PHILADELPHIA   MOSUNNY   90  65  43 SW15      30.12F HX  92
ALLENTOWN      MOSUNNY   89  67  47 S14       30.09F HX  92
SCRANTON       CLOUDY    90  66  45 N14       30.10F HX  92
$$

CTZ002-004>006-009-010-012-RIZ004-006-007-MAZ004-011-015-282000-
SOUTHERN NEW ENGLAND
 IN CT

CITY           SKY/WX    TMP DP  RH WIND       PRES   REMARKS
BRADLEY INTL   PTSUNNY   89  68  49 SE9       30.04F HX  93
HARTFORD       PTSUNNY   93  68  43 S12G20    30.04F HX  97
DANBURY        MOSUNNY   89  64  43 W6        30.09F HX  90
WTRBRY/OXFORD  PTSUNNY   88  70  55 SW9       30.13S HX  92
BRIDGEPORT     SUNNY     83  66  56 S12       30.08F
MERIDEN        SUNNY     90  67  46 S12       30.07F HX  93
NEW HAVEN      MOSUNNY   81  67  62 S9        30.09F
CHESTER        FAIR      84  66  54 S9G15     30.10F
GROTON         SUNNY     72  64  76 S7        30.10F
WILLIMANTIC    PTSUNNY   92  65  40 MISG      30.06F HX  94

 IN RI

CITY           SKY/WX    TMP DP  RH WIND       PRES   REMARKS
PROVIDENCE     PTSUNNY   84  64  50 SE10      30.07F
BLOCK ISLAND   SUNNY     67  59  75 SW21G29   30.13S
WESTERLY       SUNNY     78  60  53 SW8       30.11F

 IN MA

CITY           SKY/WX    TMP DP  RH WIND       PRES   REMARKS
BOSTON         PTSUNNY   82  64  54 E12       30.03F
WORCESTER      SUNNY     89  57  33 SW13      30.10
WESTFIELD      SUNNY     91  67  44 S12       30.05F HX  94
PROVINCETOWN   SUNNY     78  63  59 SW15G21   30.08S
NANTUCKET      SUNNY     67  59  75 SW18G26   30.13S
$$

ANZ330-335-338-340-345-350-353-355-282000-
COASTAL MARINE OBSERVATIONS


STATION/POSITION TIME  SKY/WX   TEMP    WIND        PRES    VSBY  WAVE
                                AIR SEA DIR/SP/G                  HT/PER
                 (UTC)          (F)     (DEG/KT/KT) (MB)    (MI)  (FT/S)
NY HARB ENTRANCE 1750            63 60  190/ 17/ 19 1019.4          3/ 4
20S FIRE ISLAND  1750            62 59  210/ 16/ 17 1020.3          3/ 5
GREAT SOUTH BAY  1815            66 69  250/ 12/ 16   N/A
23 SSW MONTAUK P 1850            61 57  230/ 16/ 19 1019.7          3/ 5
15 E BARNEGAT LI 1822               60                N/A           3/ 4
HUDSON CANYON    1750            62 58              1021.8          3/ 4
KINGS POINT      1800            75 63              1019.0
EXECUTION ROCKS  NOT AVBL
CENTRAL LI SOUND 1845            74     180/  6/  8   N/A           1
EASTERN LI SOUND 1800            61 56  160/  6/  6   N/A
ROBBINS REEF     1800            76     170/ 18/ 19 1018.5
$$


>>>>>>>>>>>>>>>>>>>>>>>>>>>> KEY <<<<<<<<<<<<<<<<<<<<<<<<<<<
>                                                          <
>     SKY/WX - SKY CONDITION/PRESENT WEATHER               <
>     TMP    - TEMPERATURE IN FAHRENHEIT                   <
>     DP     - DEWPOINT IN FAHRENHEIT                      <
>     RH     - RELATIVE HUMIDITY IN PERCENT                <
>     WIND   - DIRECTION AND SPEED IN MPH                  <
>     PRES   - MEAN SEA LEVEL PRESSURE IN INCHES OF HG     <
>     WCI    - WIND CHILL INDEX                            <
>     VSB    - VISIBILITY IN MILES                         <
>     HX     - HEAT INDEX                                  <
>     TC     - TEMPERATURE IN CELSIUS                      <
>     VRB    - VARIABLE WIND DIRECTION                     <
>                                                          <
>>>>>>>>>>>>>>>>>>>>>>>>>>>> KEY <<<<<<<<<<<<<<<<<<<<<<<<<<<






USA.gov is the U.S. government's official web portal to all federal, state and local government web resources and services.